Location: Nairn
(57.5833°N, 3.8667°W)
Time: 02:25:10
(UTC+00:00)

Cosmos 923 Rocket - Pass Details

Date: 07 August 2020
Orbit: 758 x 785 km, 74.0° (Epoch: 27 September)

Event Time Altitude Azimuth Distance (km) Brightness Sun altitude
Rises 02:37:35 0° 328° (NNW) 3,289 7.6 -10.9°
Reaches altitude 10° 02:40:04 10° 323° (NW) 2,355 6.8 -10.7°
Maximum altitude 02:45:08 46° 252° (WSW) 1,053 4.4 -10.3°
Drops below altitude 10° 02:50:10 10° 180° (S) 2,328 6.0 -9.9°
Enters shadow 02:51:19 - 177° (S) 2,760 6.4 -9.8°
